When you browse on this site, cookies collect data to enhance your experience and personalize the content and advertising you see.
Visit our Privacy Policy to learn more. By continuing to use the site, you agree to this use of cookies and data.
  • In Austria
  • List of Countries
  • For 7 days
  • Water Temperature
  • Satellite Maps
  • Weather Map
  • News
  • Weather Widgets
  • user-avatar
    Login

    Hourly Weather Statesboro

    Today, 21 March, Thursday

    Time Temperature Precipitation Wind Pressure Humidity
    00:00 +8°C° 0 mm 1 mps 758 mmHg 72%
    01:00 +8°C° 0 mm 1 mps 758 mmHg 73%
    02:00 +8°C° 0 mm 1 mps 757 mmHg 74%
    03:00 +8°C° 0 mm 1 mps 757 mmHg 74%
    04:00 +8°C° 0 mm 1 mps 757 mmHg 75%
    05:00 +8°C° 0 mm 1 mps 756 mmHg 76%
    06:00 +7°C° 0 mm 2 mps 756 mmHg 77%
    07:00 +6°C° 0 mm 2 mps 756 mmHg 78%
    08:00 +9°C° 0 mm 3 mps 756 mmHg 66%
    09:00 +12°C° 0 mm 3 mps 756 mmHg 53%
    10:00 +15°C° 0 mm 4 mps 756 mmHg 41%
    11:00 +16°C° 0 mm 5 mps 755 mmHg 41%
    12:00 +17°C° 0 mm 5 mps 755 mmHg 40%
    13:00 +20°C° 0 mm 6 mps 754 mmHg 40%
    14:00 +19°C° 0 mm 6 mps 753 mmHg 41%
    15:00 +18°C° 0 mm 7 mps 753 mmHg 42%
    16:00 +18°C° 0 mm 7 mps 752 mmHg 43%
    17:00 +16°C° 0 mm 6 mps 753 mmHg 46%
    18:00 +15°C° 0 mm 6 mps 753 mmHg 49%
    19:00 +13°C° 0 mm 5 mps 754 mmHg 51%
    20:00 +12°C° 0 mm 5 mps 754 mmHg 54%
    21:00 +12°C° 0 mm 4 mps 755 mmHg 57%
    22:00 +11°C° 0 mm 4 mps 755 mmHg 60%
    23:00 +11°C° 0 mm 4 mps 755 mmHg 61%

    Tomorrow, 22 March, Friday

    Time Temperature Precipitation Wind Pressure Humidity
    00:00 +11°C° 0 mm 4 mps 755 mmHg 62%
    01:00 +10°C° 0 mm 4 mps 755 mmHg 64%
    02:00 +10°C° 0 mm 4 mps 755 mmHg 66%
    03:00 +8°C° 0 mm 4 mps 755 mmHg 68%
    04:00 +7°C° 0 mm 4 mps 755 mmHg 70%
    05:00 +8°C° 0 mm 3 mps 756 mmHg 71%
    06:00 +7°C° 0 mm 3 mps 756 mmHg 71%
    07:00 +5°C° 0 mm 3 mps 756 mmHg 71%
    08:00 +8°C° 0 mm 3 mps 756 mmHg 64%
    09:00 +10°C° 0 mm 4 mps 757 mmHg 57%
    10:00 +12°C° 0 mm 4 mps 757 mmHg 50%
    11:00 +14°C° 0 mm 5 mps 757 mmHg 46%
    12:00 +16°C° 0 mm 5 mps 756 mmHg 42%
    13:00 +19°C° 0 mm 6 mps 756 mmHg 38%
    14:00 +19°C° 0 mm 6 mps 756 mmHg 37%
    15:00 +20°C° 0 mm 6 mps 755 mmHg 36%
    16:00 +21°C° 0 mm 6 mps 754 mmHg 35%
    17:00 +19°C° 0 mm 5 mps 755 mmHg 40%
    18:00 +17°C° 0 mm 4 mps 755 mmHg 44%
    19:00 +16°C° 0 mm 3 mps 756 mmHg 49%
    20:00 +14°C° 0 mm 3 mps 756 mmHg 51%
    21:00 +13°C° 0 mm 3 mps 757 mmHg 52%
    22:00 +12°C° 0 mm 3 mps 758 mmHg 54%
    23:00 +12°C° 0 mm 3 mps 758 mmHg 56%

    Day after tomorrow, 23 March, Saturday

    Time Temperature Precipitation Wind Pressure Humidity
    00:00 +11°C° 0 mm 3 mps 758 mmHg 59%
    01:00 +10°C° 0 mm 3 mps 758 mmHg 61%
    02:00 +10°C° 0 mm 3 mps 758 mmHg 64%
    03:00 +9°C° 0 mm 2 mps 758 mmHg 67%
    04:00 +8°C° 0 mm 2 mps 758 mmHg 69%
    05:00 +8°C° 0 mm 2 mps 759 mmHg 72%
    06:00 +7°C° 0 mm 2 mps 760 mmHg 74%
    07:00 +8°C° 0 mm 1 mps 760 mmHg 76%
    08:00 +9°C° 0 mm 2 mps 761 mmHg 66%
    09:00 +12°C° 0 mm 2 mps 761 mmHg 56%
    10:00 +15°C° 0 mm 2 mps 762 mmHg 46%
    11:00 +17°C° 0 mm 2 mps 762 mmHg 41%
    12:00 +20°C° 0 mm 1 mps 762 mmHg 37%
    13:00 +20°C° 0 mm 0 mps 762 mmHg 33%
    14:00 +22°C° 0 mm 1 mps 761 mmHg 32%
    15:00 +22°C° 0 mm 1 mps 761 mmHg 31%
    16:00 +22°C° 0 mm 1 mps 760 mmHg 30%
    17:00 +20°C° 0 mm 1 mps 761 mmHg 34%
    18:00 +19°C° 0 mm 1 mps 761 mmHg 39%
    19:00 +16°C° 0 mm 1 mps 761 mmHg 43%
    20:00 +15°C° 0 mm 1 mps 762 mmHg 48%
    21:00 +14°C° 0 mm 2 mps 762 mmHg 53%
    22:00 +13°C° 0 mm 2 mps 762 mmHg 59%
    23:00 +12°C° 0 mm 2 mps 762 mmHg 64%

    24 March, Sunday

    Time Temperature Precipitation Wind Pressure Humidity
    00:00 +12°C° 0 mm 2 mps 762 mmHg 70%
    01:00 +10°C° 0 mm 2 mps 762 mmHg 76%
    02:00 +10°C° 0 mm 2 mps 762 mmHg 78%
    03:00 +9°C° 0 mm 2 mps 762 mmHg 79%
    04:00 +10°C° 0 mm 1 mps 762 mmHg 81%
    05:00 +10°C° 0 mm 1 mps 763 mmHg 82%
    06:00 +9°C° 0 mm 2 mps 763 mmHg 82%
    07:00 +9°C° 0 mm 2 mps 763 mmHg 83%
    08:00 +13°C° 0 mm 2 mps 764 mmHg 71%
    09:00 +16°C° 0 mm 3 mps 764 mmHg 59%
    10:00 +19°C° 0 mm 3 mps 764 mmHg 47%
    11:00 +20°C° 0 mm 3 mps 764 mmHg 43%
    12:00 +21°C° 0 mm 3 mps 763 mmHg 38%
    13:00 +24°C° 0 mm 3 mps 763 mmHg 34%
    14:00 +24°C° 0 mm 3 mps 762 mmHg 34%
    15:00 +24°C° 0 mm 3 mps 761 mmHg 34%
    16:00 +24°C° 0 mm 3 mps 761 mmHg 35%
    17:00 +21°C° 0 mm 3 mps 761 mmHg 41%
    18:00 +19°C° 0 mm 3 mps 760 mmHg 47%
    19:00 +18°C° 0 mm 3 mps 760 mmHg 53%
    20:00 +17°C° 0 mm 3 mps 760 mmHg 57%
    21:00 +16°C° 0 mm 3 mps 760 mmHg 60%
    22:00 +14°C° 0 mm 3 mps 760 mmHg 64%
    23:00 +14°C° 0 mm 3 mps 760 mmHg 68%

    25 March, Monday

    Time Temperature Precipitation Wind Pressure Humidity
    00:00 +14°C° 0 mm 3 mps 759 mmHg 73%
    01:00 +13°C° 0 mm 3 mps 759 mmHg 78%
    02:00 +13°C° 0 mm 3 mps 758 mmHg 81%
    03:00 +13°C° 0 mm 3 mps 758 mmHg 85%
    04:00 +13°C° 0 mm 3 mps 757 mmHg 88%
    05:00 +13°C° 0 mm 3 mps 757 mmHg 90%
    06:00 +14°C° 0 mm 2 mps 757 mmHg 93%
    07:00 +14°C° 0 mm 2 mps 757 mmHg 95%
    08:00 +16°C° 0 mm 3 mps 757 mmHg 83%
    09:00 +19°C° 0 mm 4 mps 757 mmHg 71%
    10:00 +21°C° 0 mm 5 mps 757 mmHg 59%
    11:00 +22°C° 0 mm 6 mps 756 mmHg 55%
    12:00 +23°C° 0 mm 6 mps 755 mmHg 52%
    13:00 +24°C° 0 mm 7 mps 755 mmHg 48%
    14:00 +24°C° 0.1 mm 6 mps 754 mmHg 52%
    15:00 +23°C° 0.1 mm 5 mps 753 mmHg 55%
    16:00 +23°C° 0.1 mm 5 mps 753 mmHg 59%
    17:00 +22°C° 0.6 mm 5 mps 753 mmHg 65%
    18:00 +21°C° 0.6 mm 5 mps 753 mmHg 70%
    19:00 +19°C° 0.6 mm 5 mps 753 mmHg 76%
    20:00 +19°C° 0.2 mm 5 mps 753 mmHg 80%
    21:00 +18°C° 0.2 mm 4 mps 753 mmHg 83%
    22:00 +17°C° 0.2 mm 4 mps 753 mmHg 87%
    23:00 +17°C° 0 mm 4 mps 753 mmHg 85%

    26 March, Tuesday

    Time Temperature Precipitation Wind Pressure Humidity
    00:00 +15°C° 0 mm 5 mps 753 mmHg 84%
    01:00 +14°C° 0 mm 5 mps 753 mmHg 83%
    02:00 +14°C° 0 mm 5 mps 753 mmHg 83%
    03:00 +13°C° 0 mm 5 mps 754 mmHg 82%
    04:00 +12°C° 0 mm 4 mps 754 mmHg 82%
    05:00 +12°C° 0 mm 4 mps 755 mmHg 83%
    06:00 +11°C° 0 mm 4 mps 755 mmHg 83%
    07:00 +11°C° 0 mm 4 mps 756 mmHg 84%
    08:00 +12°C° 0 mm 5 mps 757 mmHg 74%
    09:00 +12°C° 0 mm 5 mps 758 mmHg 64%
    10:00 +13°C° 0 mm 5 mps 758 mmHg 55%
    11:00 +14°C° 0 mm 5 mps 759 mmHg 50%
    12:00 +15°C° 0 mm 5 mps 759 mmHg 46%
    13:00 +16°C° 0 mm 5 mps 759 mmHg 41%
    14:00 +16°C° 0 mm 5 mps 759 mmHg 38%
    15:00 +16°C° 0 mm 5 mps 759 mmHg 35%
    16:00 +16°C° 0 mm 5 mps 759 mmHg 31%
    17:00 +14°C° 0 mm 4 mps 760 mmHg 33%
    18:00 +13°C° 0 mm 3 mps 761 mmHg 34%
    19:00 +11°C° 0 mm 3 mps 761 mmHg 35%
    20:00 +10°C° 0 mm 3 mps 762 mmHg 36%
    21:00 +9°C° 0 mm 3 mps 762 mmHg 37%
    22:00 +9°C° 0 mm 3 mps 763 mmHg 38%
    23:00 +8°C° 0 mm 3 mps 763 mmHg 39%
    Show more